Regional Weather Roundup
Issued by NWS

Home | Current Version | Previous Version | Graphics & Text | Print | Product List | Glossary On
Versions: 1 2 3 4 5 6 7 8 9 10 11 12 13 14 15 16 17 18 19 20 21 22 23 24 25 26 27 28 29 30 31 32 33 34 35 36 37 38 39 40 41 42 43 44 45 46 47 48 49 50
957
ASUS45 KTFX 250710
RWRMT
MONTANA REGIONAL WEATHER ROUNDUP
NATIONAL WEATHER SERVICE GREAT FALLS MT
100 AM MDT TUE APR 25 2017

NOTE: "FAIR" INDICATES FEW OR NO CLOUDS BELOW 12000 FEET WITH NO
SIGNIFICANT WEATHER AND/OR OBSTRUCTIONS TO VISIBILITY.

MTZ001>007-043-250800-
WEST OF THE DIVIDE

CITY           SKY/WX    TMP DP  RH WIND       PRES   REMARKS
KALISPELL      CLOUDY    40  39  97 CALM      29.73R
MISSOULA       CLOUDY    41  39  93 NW3       29.75R
BUTTE          LGT RAIN  33  32  96 SE3       29.69R FOG
MULLAN PASS    CLOUDY    30  30 100 NW5       29.73R
ANACONDA         N/A     39  34  81 CALM      29.70R
DEER LODGE       N/A     39  34  81 NW8       29.71R
EUREKA           N/A     37  36  93 CALM      29.73R
HAMILTON         N/A     41  37  87 CALM      29.74R
LIBBY            N/A     37  36  93 CALM      29.73R
PLAINS           N/A     40  35  82 CALM      29.77R
$$

MTZ008-052>055-250800-
SOUTHWEST MONTANA

CITY           SKY/WX    TMP DP  RH WIND       PRES   REMARKS
BOZEMAN        CLOUDY    42  37  82 CALM      29.64R
DILLON         LGT RAIN  36  33  89 N6        29.66R WCI  31
W YELLOWSTONE  LGT SNOW  32  32 100 CALM      29.62S
ENNIS          CLOUDY    34  34 100 SE5       29.68S
THREE FORKS      N/A     43  43 100 CALM      29.68R
TWIN BRIDGES     N/A     40  34  79 NW1       29.69R
$$

MTZ009-010-012-014-046-048-049-054-250800-
EAST SLOPES AND CENTRAL MONTANA

CITY           SKY/WX    TMP DP  RH WIND       PRES   REMARKS
CUT BANK       CLOUDY    38  37  97 N8        29.71R
GREAT FALLS    CLOUDY    41  37  86 N6        29.70R
MALMSTROM AFB  CLOUDY    42  39  88 N6        29.70R
HELENA         CLOUDY    45  37  73 NW8       29.67R
AUGUSTA        LGT RAIN  37  37 100 W7        29.71R WCI  32
BOWMANS CRNR   CLOUDY    37  36  96 NW7       29.69R WCI  31
CHOTEAU          N/A     39  37  93 NW5       29.73R
FAIRFIELD      MOCLDY    38  36  90 NW7       29.70R
POWER          LGT RAIN  39  37  94 N3        29.69R
RAYNESFORD     CLOUDY    40  36  87 SE8       29.69R
ULM            MOCLDY    40  39  97 CALM      29.70R
$$

MTZ011-013-016-021-045-047-050-051-250800-
NORTH CENTRAL MONTANA

CITY           SKY/WX    TMP DP  RH WIND       PRES   REMARKS
HAVRE          CLOUDY    34  29  82 E23       29.74R WCI  22
LEWISTOWN      CLOUDY    37  36  96 E17       29.69R WCI  27
N BAR RANCH    SNOW      34  32  93 E6        29.73R VSB<1/4 WCI  29
CHINOOK          N/A     34  27  75 E15G22    29.80R WCI  24
DENTON         CLOUDY    40  38  95 E15G21    29.66R
FORT BENTON      N/A     43  39  87 MISG      29.71S
GEYSER         LGT RAIN  39  37  92 CALM      29.69R
GRASS RANGE    LGT RAIN  36  36  98 E10       29.68R WCI  29
JUDITH GAP     CLOUDY    38  36  95 NW13      29.67R WCI  30
STANFORD       LGT RAIN  37  36  96 NW6       29.69R
WINIFRED       LGT RAIN  38  37  96 E17       29.70R WCI  28
$$

MTZ017>020-022>027-061-062-250800-
NORTHEAST MONTANA

CITY           SKY/WX    TMP DP  RH WIND       PRES   REMARKS
GLASGOW        CLOUDY    30  24  78 E15       29.83R WCI  19
JORDAN           N/A     32  27  81 NE14      29.77R WCI  22
SIDNEY         CLOUDY    31  27  85 NE13      29.83R WCI  21
WOLF POINT     CLOUDY    31  26  82 E15       29.85R WCI  20
MALTA          CLOUDY    32  27  80 E12       29.82S WCI  23
PLENTYWOOD       N/A     28  27  93 NE10      29.86R WCI  19
SCOBEY           N/A     28  20  72 NE8       29.84R WCI  20
$$

MTZ028>42-056>058-250800-
SOUTHCENTRAL AND SOUTHEAST MONTANA

CITY           SKY/WX    TMP DP  RH WIND       PRES   REMARKS
BAKER          CLOUDY    31  27  85 E13       29.73R WCI  21
BILLINGS       LGT RAIN  41  39  93 NE17      29.65R
LIVINGSTON     RAIN      36  34  92 S10       29.64S WCI  28
MILES CITY     CLOUDY    37  30  75 NE12      29.72R WCI  29
BIG TIMBER     CLOUDY    37  37 100 N12       29.68R FOG     WCI  30
EKALAKA          N/A     32  29  89 NE10      29.69R WCI  24
LAUREL           N/A     42  38  86 NE13      29.67R
ROUNDUP          N/A     38  32  79 NE12      29.64R WCI  30
$$

REGIONAL REPORTS...DAKOTAS

CITY           SKY/WX    TMP DP  RH WIND       PRES   REMARKS
WILLISTON      CLOUDY    31  25  78 NE10      29.84S WCI  22
MINOT          CLOUDY    32  27  81 N14       29.81S WCI  22
DICKINSON      CLOUDY    28  26  92 NE14      29.73S WCI  17
BEACH          CLOUDY    30  30 100 E12       29.78F WCI  21
TIOGA          CLOUDY    28  28 100 E16G22    29.83S WCI  17
WATFORD CITY   CLOUDY    30  28  93 NE14G20   29.81R WCI  20
BISMARCK       CLOUDY    34  29  82 N16       29.76S WCI  24
GRAND FORKS    CLOUDY    33  31  92 N18       29.71R WCI  22
FARGO          CLOUDY    35  33  92 N21G29    29.64S WCI  24
BUFFALO SD       N/A     33  30  88 E13       29.63R WCI  24
RAPID CITY     LGT RAIN  37  34  89 NE12      29.65S WCI  29
$$

REGIONAL REPORTS...WYOMING/IDAHO/WASHINGTON

CITY           SKY/WX    TMP DP  RH WIND       PRES   REMARKS
GILLETTE       RAIN      43  43 100 E15       29.51S
SHERIDAN       RAIN      39  37  92 N10       29.61S
BUFFALO WY     SNOW      34  31  88 NW18G28   29.57R VSB 1/2 WCI  23
CODY           CLOUDY    39  34  82 N10       29.61R
YELLOWSTONE LA   N/A     29  29 100 CALM      29.64S
IDAHO FALLS    CLOUDY    39  37  92 SW16      29.69R WCI  30
SALMON         CLOUDY    37  36  93 CALM      29.71R
BOISE          CLOUDY    45  41  86 N5        29.79R
SPOKANE        CLOUDY    45  38  76 SW8       29.77R
$$

REGIONAL REPORTS...ALBERTA

CITY           SKY/WX    TMP DP  RH WIND       PRES   REMARKS
EDMONTON       CLOUDY    32  32 100 NW7       29.86R WCI  26
CALGARY        LGT SNOW  32  30  93 N17       29.80R FOG     WCI  21
LETHBRIDGE     LGT RAIN  41  39  93 E13       29.74R
MEDICINE HAT   CLOUDY    36  30  80 E14G22    29.79R WCI  27
WATERTON GATE    N/A     34  32  93 NE2         N/A
CARDSTON         N/A     37  36  93 NW3         N/A
MILK RIVER       N/A     41  39  93 N6          N/A
ONEFOUR          N/A     34  32  93 E18         N/A  WCI  23
$$

REGIONAL REPORTS...SASKATCHEWAN

CITY           SKY/WX    TMP DP  RH WIND       PRES   REMARKS
SWIFT CURRENT  CLOUDY    27  25  93 E13G20    29.86R WCI  16
REGINA         CLOUDY    27  21  80 E13       29.94R WCI  16
SASKATOON      MOCLDY    25  21  86 E8        30.00R WCI  16
CYPRESS HILLS    N/A     27  25  93 SE7         N/A  WCI  19
VAL MARIE        N/A     28  25  86 E13         N/A  WCI  18
ASSINIBOIA       N/A     34  32  93 SE8         N/A  WCI  27
$$




USA.gov is the U.S. government's official web portal to all federal, state and local government web resources and services.